Weather History for Hillsdale, MI

Change the Weather History Date:

Wednesday, January 30, 2013

  Actual Average Record
Temperature  
Mean Temperature 40 °F -  
Max Temperature 59 °F 30 °F 59 °F (2013)
Min Temperature 29 °F 14 °F -8 °F (1951)
Degree Days  
Heating Degree Days 25    
Moisture  
Dew Point 42 °F    
Average Humidity 92    
Maximum Humidity 100    
Minimum Humidity 77    
Precipitation  
Precipitation 0.00 in - - ()
Sea Level Pressure  
Sea Level Pressure 29.22 in    
Wind  
Wind Speed 13 mph (SW)    
Max Wind Speed 28 mph    
Max Gust Speed 34 mph    
Visibility 9 miles    
Events Rain , Snow    
Averages and records for this station are not official NWS values.
T = Trace of Precipitation, MM = Missing Value Source: NWS Daily Summary

Daily Weather History Graph

Daily Weather History Graph

Search for Another Location

Airport:

Trip Planner

Search our weather history database for the weather conditions in past years. The results will help you decide how hot, cold, wet, or windy it might be!

Date:

Astronomy

Jan. 30, 2013 Rise Set
Actual Time 7:52 AM EST 5:51 PM EST
Civil Twilight 7:23 AM EST 6:20 PM EST
Nautical Twilight 6:49 AM EST 6:54 PM EST
Astronomical Twilight 6:16 AM EST 7:27 PM EST
Moon 9:53 PM EST (1/30) 9:15 AM EST (1/30)
Length of Visible Light 10h 57m
Length of Day
9h 58m
Waning Gibbous, 88% of the Moon is Illuminated
Jan 30
Waning Gibbous
Feb 3
Last Quarter
Feb 10
New
Feb 17
First Quarter
Feb 25
Full

Hourly Weather History & Observations

Time (EST) Temp. Windchill Dew Point Humidity Pressure Visibility Wind Dir Wind Speed Gust Speed Precip Events Conditions
10:35 AM 51.8 °F - 51.8 °F 100% 29.31 in 10.0 mi SSW 10.4 mph - N/A   Overcast
10:50 AM 50.7 °F - 50.7 °F 100% 29.30 in 10.0 mi SSW 11.5 mph - N/A   Overcast
10:56 AM 50.7 °F - 50.7 °F 100% 29.31 in 10.0 mi SSW 9.2 mph - N/A   Overcast
11:14 AM 51.3 °F - 51.3 °F 100% 29.28 in 10.0 mi SSW 9.2 mph 18.4 mph N/A   Overcast
11:35 AM 51.3 °F - 51.1 °F 99% 29.27 in 10.0 mi SSW 10.4 mph 18.4 mph N/A   Overcast
11:55 AM 51.4 °F - 50.9 °F 98% 29.28 in 10.0 mi SW 10.4 mph 19.6 mph N/A   Overcast
12:14 PM 51.3 °F - 50.4 °F 97% 29.27 in 10.0 mi SSW 15.0 mph 20.7 mph N/A   Overcast
12:35 PM 51.1 °F - 50.2 °F 97% 29.24 in 10.0 mi SW 11.5 mph 16.1 mph N/A   Overcast
12:55 PM 51.1 °F - 50.0 °F 96% 29.22 in 10.0 mi SW 11.5 mph 17.3 mph N/A   Overcast
1:14 PM 51.1 °F - 50.0 °F 96% 29.23 in 10.0 mi SSW 10.4 mph - N/A   Overcast
1:35 PM 50.7 °F - 50.0 °F 97% 29.24 in 10.0 mi SSW 11.5 mph 18.4 mph N/A   Overcast
1:55 PM 50.7 °F - 50.0 °F 97% 29.23 in 4.0 mi SSW 12.7 mph 21.9 mph N/A   Overcast
2:14 PM 50.7 °F - 50.2 °F 98% 29.20 in 2.0 mi SSW 15.0 mph 21.9 mph N/A   Light Drizzle
2:35 PM 50.7 °F - 50.2 °F 98% 29.20 in 3.0 mi SW 12.7 mph 19.6 mph N/A   Overcast
2:54 PM 50.7 °F - 50.2 °F 98% 29.21 in 2.0 mi SW 12.7 mph 20.7 mph N/A   Drizzle
3:15 PM 50.7 °F - 49.8 °F 97% 29.17 in 10.0 mi SW 12.7 mph 19.6 mph N/A   Overcast
3:35 PM 51.3 °F - 49.6 °F 94% 29.17 in 10.0 mi SW 13.8 mph 19.6 mph N/A   Overcast
3:54 PM 51.4 °F - 48.9 °F 91% 29.18 in 10.0 mi SW 13.8 mph - N/A   Overcast
4:14 PM 51.4 °F - 48.6 °F 90% 29.16 in 10.0 mi SSW 11.5 mph 17.3 mph N/A   Mostly Cloudy
4:35 PM 51.3 °F - 48.0 °F 89% 29.16 in 10.0 mi SSW 11.5 mph 17.3 mph N/A   Overcast
4:55 PM 50.5 °F - 46.2 °F 85% 29.18 in 7.0 mi WSW 25.3 mph 32.2 mph N/A Rain Rain
5:14 PM 46.2 °F 40.8 °F 43.2 °F 89% 29.16 in 10.0 mi WSW 11.5 mph 23.0 mph N/A   Overcast
5:35 PM 45.9 °F 39.7 °F 42.1 °F 87% 29.17 in 10.0 mi WSW 13.8 mph 19.6 mph N/A Rain Light Rain
5:55 PM 45.1 °F 39.1 °F 41.2 °F 86% 29.17 in 10.0 mi WSW 12.7 mph 24.2 mph N/A Rain Rain
6:14 PM 44.4 °F 37.9 °F 40.8 °F 87% 29.18 in 10.0 mi WSW 13.8 mph 20.7 mph N/A Rain Light Rain
6:34 PM 43.3 °F 35.5 °F 40.6 °F 90% 29.18 in 10.0 mi WSW 17.3 mph 23.0 mph N/A   Drizzle
6:55 PM 41.5 °F 33.8 °F 38.8 °F 90% 29.17 in 10.0 mi WSW 15.0 mph 24.2 mph N/A Rain Light Rain
7:14 PM 39.7 °F 31.2 °F 37.2 °F 91% 29.17 in 10.0 mi WSW 16.1 mph 24.2 mph N/A Rain Rain
7:35 PM 38.8 °F 28.5 °F 36.7 °F 92% 29.21 in 10.0 mi WSW 21.9 mph 26.5 mph N/A Rain Rain
7:54 PM 38.1 °F 29.5 °F 35.8 °F 91% 29.20 in 10.0 mi WSW 15.0 mph 26.5 mph N/A Rain Light Rain
8:15 PM 37.9 °F 30.5 °F 35.2 °F 90% 29.19 in 10.0 mi WSW 11.5 mph 21.9 mph N/A   Light Drizzle
8:34 PM 37.8 °F 28.6 °F 34.9 °F 89% 29.18 in 10.0 mi WSW 16.1 mph 26.5 mph N/A Rain Light Rain
8:55 PM 37.2 °F 27.6 °F 34.3 °F 89% 29.19 in 10.0 mi WSW 17.3 mph 25.3 mph N/A   Overcast
9:15 PM 36.5 °F 26.0 °F 34.7 °F 93% 29.19 in 4.0 mi WSW 19.6 mph 24.2 mph N/A Snow Light Snow
9:34 PM 35.1 °F 23.0 °F 33.3 °F 93% 29.21 in 3.0 mi West 24.2 mph 32.2 mph N/A Snow Light Snow
9:55 PM 33.4 °F 21.1 °F 31.8 °F 94% 29.23 in 1.8 mi WNW 23.0 mph 29.9 mph N/A Snow Light Snow
10:15 PM 32.4 °F 19.4 °F 30.0 °F 91% 29.25 in 10.0 mi WNW 24.2 mph 33.4 mph N/A   Overcast
10:34 PM 31.6 °F 20.0 °F 28.8 °F 89% 29.27 in 5.0 mi West 18.4 mph 31.1 mph N/A Snow Light Snow
10:55 PM 31.3 °F 18.9 °F 27.0 °F 84% 29.28 in 10.0 mi West 20.7 mph 29.9 mph N/A   Overcast
11:15 PM 30.6 °F 17.9 °F 24.6 °F 79% 29.30 in 10.0 mi West 20.7 mph 33.4 mph N/A   Overcast
11:35 PM 29.8 °F 15.2 °F 23.4 °F 77% 29.32 in 10.0 mi West 27.6 mph 34.5 mph N/A   Overcast
11:55 PM 29.5 °F 16.5 °F 23.0 °F 77% 29.33 in 10.0 mi West 20.7 mph 27.6 mph N/A   Overcast